When you browse on this site, cookies collect data to enhance your experience and personalize the content and advertising you see.
Visit our Privacy Policy to learn more. By continuing to use the site, you agree to this use of cookies and data.
  • In Hungary
  • List of Countries
  • For 7 days
  • Water Temperature
  • Satellite Maps
  • Weather Map
  • News
  • Weather Widgets
  • user-avatar
    Login

    Hourly Weather Stockerau

    Today, 21 March, Thursday

    Time Temperature Precipitation Wind Pressure Humidity
    00:00 +4°C° 0 mm 1 mps 761 mmHg 64%
    01:00 +4°C° 0 mm 1 mps 761 mmHg 65%
    02:00 +4°C° 0 mm 1 mps 761 mmHg 66%
    03:00 +4°C° 0 mm 1 mps 761 mmHg 67%
    04:00 +3°C° 0 mm 1 mps 761 mmHg 68%
    05:00 +3°C° 0 mm 1 mps 761 mmHg 68%
    06:00 +4°C° 0 mm 1 mps 761 mmHg 67%
    07:00 +4°C° 0 mm 1 mps 761 mmHg 67%
    08:00 +6°C° 0 mm 1 mps 761 mmHg 60%
    09:00 +8°C° 0 mm 1 mps 761 mmHg 54%
    10:00 +9°C° 0 mm 0 mps 761 mmHg 47%
    11:00 +10°C° 0 mm 0 mps 760 mmHg 44%
    12:00 +12°C° 0 mm 1 mps 760 mmHg 40%
    13:00 +14°C° 0 mm 1 mps 760 mmHg 37%
    14:00 +14°C° 0 mm 1 mps 759 mmHg 36%
    15:00 +14°C° 0 mm 1 mps 759 mmHg 36%
    16:00 +14°C° 0 mm 1 mps 759 mmHg 35%
    17:00 +13°C° 0 mm 1 mps 759 mmHg 39%
    18:00 +10°C° 0 mm 0 mps 759 mmHg 44%
    19:00 +9°C° 0 mm 0 mps 759 mmHg 48%
    20:00 +9°C° 0 mm 0 mps 759 mmHg 49%
    21:00 +8°C° 0 mm 0 mps 759 mmHg 50%
    22:00 +8°C° 0 mm 0 mps 759 mmHg 52%
    23:00 +7°C° 0 mm 0 mps 759 mmHg 53%

    Tomorrow, 22 March, Friday

    Time Temperature Precipitation Wind Pressure Humidity
    00:00 +7°C° 0 mm 0 mps 759 mmHg 54%
    01:00 +7°C° 0 mm 0 mps 759 mmHg 55%
    02:00 +6°C° 0 mm 0 mps 759 mmHg 56%
    03:00 +6°C° 0 mm 0 mps 759 mmHg 57%
    04:00 +6°C° 0 mm 0 mps 759 mmHg 58%
    05:00 +6°C° 0 mm 0 mps 759 mmHg 59%
    06:00 +6°C° 0 mm 0 mps 759 mmHg 60%
    07:00 +6°C° 0 mm 0 mps 759 mmHg 61%
    08:00 +9°C° 0 mm 1 mps 759 mmHg 57%
    09:00 +11°C° 0 mm 1 mps 759 mmHg 54%
    10:00 +13°C° 0 mm 1 mps 758 mmHg 50%
    11:00 +14°C° 0 mm 1 mps 758 mmHg 49%
    12:00 +16°C° 0 mm 2 mps 758 mmHg 49%
    13:00 +17°C° 0 mm 2 mps 757 mmHg 49%
    14:00 +17°C° 0 mm 2 mps 757 mmHg 50%
    15:00 +17°C° 0 mm 2 mps 757 mmHg 51%
    16:00 +18°C° 0 mm 2 mps 756 mmHg 52%
    17:00 +16°C° 0 mm 2 mps 756 mmHg 57%
    18:00 +15°C° 0 mm 1 mps 756 mmHg 63%
    19:00 +13°C° 0 mm 1 mps 756 mmHg 68%
    20:00 +13°C° 0 mm 1 mps 756 mmHg 71%
    21:00 +12°C° 0 mm 1 mps 757 mmHg 73%
    22:00 +10°C° 0 mm 0 mps 757 mmHg 76%
    23:00 +11°C° 0 mm 1 mps 757 mmHg 78%

    Day after tomorrow, 23 March, Saturday

    Time Temperature Precipitation Wind Pressure Humidity
    00:00 +10°C° 0 mm 1 mps 756 mmHg 80%
    01:00 +10°C° 0 mm 1 mps 756 mmHg 82%
    02:00 +10°C° 0 mm 1 mps 756 mmHg 83%
    03:00 +9°C° 0 mm 1 mps 756 mmHg 84%
    04:00 +9°C° 0 mm 1 mps 755 mmHg 85%
    05:00 +9°C° 0 mm 1 mps 755 mmHg 84%
    06:00 +9°C° 0 mm 1 mps 755 mmHg 84%
    07:00 +9°C° 0 mm 1 mps 755 mmHg 84%
    08:00 +11°C° 0 mm 1 mps 755 mmHg 76%
    09:00 +13°C° 0 mm 1 mps 755 mmHg 68%
    10:00 +15°C° 0 mm 1 mps 755 mmHg 61%
    11:00 +16°C° 0 mm 1 mps 754 mmHg 56%
    12:00 +18°C° 0 mm 1 mps 754 mmHg 51%
    13:00 +20°C° 0 mm 1 mps 754 mmHg 46%
    14:00 +20°C° 0 mm 1 mps 753 mmHg 46%
    15:00 +20°C° 0 mm 1 mps 753 mmHg 45%
    16:00 +20°C° 0 mm 1 mps 753 mmHg 44%
    17:00 +18°C° 0 mm 1 mps 753 mmHg 49%
    18:00 +16°C° 0 mm 1 mps 753 mmHg 54%
    19:00 +14°C° 0 mm 1 mps 753 mmHg 59%
    20:00 +14°C° 0 mm 1 mps 753 mmHg 61%
    21:00 +12°C° 0 mm 0 mps 753 mmHg 63%
    22:00 +12°C° 0 mm 0 mps 754 mmHg 66%
    23:00 +11°C° 0 mm 0 mps 753 mmHg 68%

    24 March, Sunday

    Time Temperature Precipitation Wind Pressure Humidity
    00:00 +11°C° 0 mm 0 mps 753 mmHg 70%
    01:00 +11°C° 0 mm 1 mps 753 mmHg 72%
    02:00 +11°C° 0 mm 1 mps 753 mmHg 74%
    03:00 +10°C° 0 mm 1 mps 753 mmHg 76%
    04:00 +10°C° 0 mm 1 mps 753 mmHg 77%
    05:00 +10°C° 0 mm 1 mps 753 mmHg 77%
    06:00 +10°C° 0 mm 1 mps 753 mmHg 77%
    07:00 +10°C° 0 mm 1 mps 753 mmHg 77%
    08:00 +11°C° 0 mm 0 mps 753 mmHg 71%
    09:00 +13°C° 0 mm 0 mps 752 mmHg 64%
    10:00 +15°C° 0 mm 0 mps 752 mmHg 57%
    11:00 +18°C° 0 mm 1 mps 752 mmHg 54%
    12:00 +19°C° 0 mm 1 mps 751 mmHg 50%
    13:00 +20°C° 0 mm 1 mps 751 mmHg 47%
    14:00 +20°C° 0 mm 1 mps 750 mmHg 47%
    15:00 +20°C° 0 mm 1 mps 750 mmHg 46%
    16:00 +20°C° 0 mm 1 mps 749 mmHg 46%
    17:00 +19°C° 0 mm 1 mps 749 mmHg 51%
    18:00 +15°C° 0 mm 0 mps 749 mmHg 55%
    19:00 +14°C° 0 mm 0 mps 749 mmHg 60%
    20:00 +14°C° 0 mm 0 mps 749 mmHg 63%
    21:00 +14°C° 0 mm 1 mps 749 mmHg 65%
    22:00 +14°C° 0 mm 1 mps 749 mmHg 68%
    23:00 +13°C° 0 mm 1 mps 749 mmHg 72%

    25 March, Monday

    Time Temperature Precipitation Wind Pressure Humidity
    00:00 +13°C° 0 mm 2 mps 749 mmHg 76%
    01:00 +12°C° 0 mm 2 mps 749 mmHg 80%
    02:00 +11°C° 0.1 mm 3 mps 749 mmHg 82%
    03:00 +10°C° 0.1 mm 3 mps 749 mmHg 84%
    04:00 +10°C° 0.1 mm 3 mps 748 mmHg 86%
    05:00 +10°C° 0.2 mm 4 mps 749 mmHg 84%
    06:00 +8°C° 0.2 mm 4 mps 749 mmHg 82%
    07:00 +8°C° 0.2 mm 4 mps 749 mmHg 80%
    08:00 +10°C° 0 mm 4 mps 749 mmHg 74%
    09:00 +9°C° 0 mm 5 mps 749 mmHg 67%
    10:00 +10°C° 0 mm 5 mps 749 mmHg 61%
    11:00 +10°C° 0 mm 5 mps 749 mmHg 58%
    12:00 +11°C° 0 mm 6 mps 749 mmHg 55%
    13:00 +11°C° 0 mm 6 mps 749 mmHg 52%
    14:00 +11°C° 0 mm 6 mps 748 mmHg 51%
    15:00 +11°C° 0 mm 7 mps 748 mmHg 49%
    16:00 +11°C° 0 mm 7 mps 748 mmHg 47%
    17:00 +10°C° 0 mm 6 mps 748 mmHg 48%
    18:00 +9°C° 0 mm 5 mps 748 mmHg 49%
    19:00 +8°C° 0 mm 4 mps 748 mmHg 50%
    20:00 +7°C° 0 mm 5 mps 749 mmHg 54%
    21:00 +7°C° 0 mm 5 mps 749 mmHg 58%
    22:00 +6°C° 0 mm 5 mps 749 mmHg 62%
    23:00 +6°C° 0 mm 5 mps 749 mmHg 62%

    26 March, Tuesday

    Time Temperature Precipitation Wind Pressure Humidity
    00:00 +5°C° 0 mm 5 mps 749 mmHg 62%
    01:00 +3°C° 0 mm 5 mps 749 mmHg 62%
    02:00 +3°C° 0 mm 6 mps 749 mmHg 60%
    03:00 +3°C° 0 mm 7 mps 748 mmHg 59%
    04:00 +1°C° 0 mm 8 mps 748 mmHg 57%
    05:00 +1°C° 0 mm 8 mps 749 mmHg 57%
    06:00 +1°C° 0 mm 8 mps 749 mmHg 57%
    07:00 0°C° 0 mm 9 mps 749 mmHg 57%
    08:00 +1°C° 0.3 mm 9 mps 750 mmHg 54%
    09:00 +1°C° 0.3 mm 9 mps 750 mmHg 52%
    10:00 +2°C° 0.3 mm 10 mps 750 mmHg 49%
    11:00 +2°C° 0 mm 10 mps 750 mmHg 46%
    12:00 +3°C° 0 mm 10 mps 750 mmHg 44%
    13:00 +5°C° 0 mm 10 mps 750 mmHg 41%
    14:00 +3°C° 0 mm 10 mps 751 mmHg 43%
    15:00 +3°C° 0 mm 10 mps 751 mmHg 44%
    16:00 +3°C° 0 mm 9 mps 751 mmHg 46%
    17:00 +3°C° 0 mm 9 mps 751 mmHg 49%
    18:00 +2°C° 0 mm 8 mps 752 mmHg 52%
    19:00 +2°C° 0 mm 8 mps 752 mmHg 55%
    20:00 +2°C° 0 mm 7 mps 753 mmHg 59%
    21:00 +2°C° 0 mm 6 mps 753 mmHg 63%
    22:00 +1°C° 0 mm 6 mps 754 mmHg 67%
    23:00 +1°C° 0 mm 6 mps 754 mmHg 69%
    Show more